This demonstration page uses our WeatherBlox Daily Observations layout. Learn more.

Left ArrowRight Arrow

Hourly Observations for November 29, 2022

Temp ( °F °C ) Dew Point ( °F °C ) Humidity (%) Winds ( mph kmh ) Pressure ( in mb ) Visibility ( mi km ) Precip ( " mm )
12:53 am 00:53 Cloudy with Mist and Fog 46 7.8 42 5.6 86 86 Calm 30.04 1017 6 10 0.00 0.00
1:32 am 01:32 Cloudy with Mist and Fog 46 7.8 42 5.6 86 86 Calm 30.06 1018 6 10 0.00 0.00
1:53 am 01:53 Cloudy with Mist and Fog 46 7.8 42 5.6 86 86 E 3 6 30.05 1018 6 10 0.00 0.00
2:53 am 02:53 Cloudy 46 7.8 42 5.6 86 86 Calm 30.05 1018 7 11 0.00 0.00
3:53 am 03:53 Cloudy 47 8.3 41 5 80 80 VRB 3 6 30.06 1018 7 11 0.00 0.00
4:53 am 04:53 Cloudy 46 7.8 41 5 82 82 Calm 30.06 1018 8 13 0.00 0.00
5:53 am 05:53 Mostly Cloudy 45 7.2 40 4.4 82 82 Calm 30.05 1018 8 13 0.00 0.00
6:53 am 06:53 Cloudy 45 7.2 40 4.4 82 82 Calm 30.06 1018 8 13 0.00 0.00
7:53 am 07:53 Mostly Cloudy 44 6.7 40 4.4 85 85 VRB 3 6 30.06 1018 7 11 0.00 0.00
8:53 am 08:53 Mostly Cloudy 46 7.8 41 5 82 82 VRB 5 7 30.05 1018 8 13 0.00 0.00
9:53 am 09:53 Sunny 47 8.3 41 5 80 80 VRB 3 6 30.05 1018 10 16 0.00 0.00
10:53 am 10:53 Sunny 52 11.1 42 5.6 69 69 undefined N/A 30.02 1017 10 16 0.00 0.00
11:53 am 11:53 Sunny 54 12.2 42 5.6 64 64 VRB 3 6 29.99 1016 10 16 0.00 0.00
12:53 pm 12:53 Sunny 58 14.4 43 6.1 57 57 VRB 7 11 29.93 1014 10 16 0.00 0.00
1:53 pm 13:53 Sunny 60 15.6 44 6.7 55 55 VRB 6 9 29.88 1012 10 16 0.00 0.00
2:53 pm 14:53 Sunny 61 16.1 45 7.2 56 56 SSE 9 15 29.86 1011 10 16 0.00 0.00
3:53 pm 15:53 Sunny 61 16.1 46 7.8 58 58 VRB 7 11 29.85 1011 10 16 0.00 0.00
4:53 pm 16:53 Sunny 60 15.6 45 7.2 57 57 VRB 6 9 29.83 1010 10 16 0.00 0.00
5:53 pm 17:53 Cloudy 60 15.6 44 6.7 55 55 VRB 6 9 29.81 1009 10 16 0.00 0.00
6:53 pm 18:53 Mostly Clear 59 15 43 6.1 55 55 SSE 8 13 29.78 1009 10 16 0.00 0.00
7:53 pm 19:53 Partly Cloudy 59 15 42 5.6 53 53 S 8 13 29.75 1008 10 16 0.00 0.00
8:53 pm 20:53 Mostly Cloudy 59 15 42 5.6 53 53 VRB 6 9 29.72 1006 10 16 0.00 0.00
9:53 pm 21:53 Cloudy with Nearby Thunderstorms 59 15 45 7.2 60 60 VRB 5 7 29.71 1006 10 16 0.01 0.13
10:14 pm 22:14 Cloudy with Light Rain 56 13.3 48 8.9 75 75 VRB 5 7 29.72 1006 6 10 0.03 0.76
10:53 pm 22:53 Cloudy with Light Rain 57 13.9 48 8.9 72 72 S 7 11 29.72 1006 10 16 0.03 0.76
11:53 pm 23:53 Cloudy 56 13.3 51 10.6 84 84 VRB 5 7 29.71 1006 10 16 0.01 0.13

Powered by AerisWeather